Temp
63 63 60 60 62 63 62 62 59 61 60 60 61 61 60 61 61 60 61 60 60 60 59 59 60 61 62 61 60 60 60 59 59 59 58 58 58 57 58 58 57 57
62 63 64 62 62 63 61 61 60 61 61 60 60 60 60 60 60 61 60 59 60 60 60 59 59 60 59 59 59 58 58 59 59 60 59 58 58 58 57 58 58 58
63 63 63 62 62 61 59 60 60 60 59 59 59 59 60 60 59 59 59 59 59 59 59 59 58 59 59 59 58 59 59 58 58 59 59 58 58 58 58 58 57 57
62 63 63 63 62 60 59 59 59 59 58 58 58 59 60 61 60 59 58 61 59 59 58 58 58 58 58 58 58 58 58 58 59 59 58 58 58 58 58 58 58 58
61 61 62 62 62 61 60 60 59 58 58 59 59 59 60 60 59 58 58 58 58 59 58 58 57 58 58 58 57 57 57 57 57 57 57 57 58 58 58 58 57 57
61 62 62 62 61 60 59 59 60 59 59 58 58 59 59 59 58 59 59 58 57 58 58 57 57 57 57 57 56 56 57 57 57 57 56 56 57 58 58 58 57 57
61 60 60 61 60 60 60 60 60 60 59 60 59 58 58 58 58 59 59 58 58 58 59 58 57 57 56 56 56 56 56 57 57 56 56 56 57 57 57 57 57 57
59 59 59 59 59 58 59 58 58 58 58 58 58 59 59 59 58 58 58 58 58 58 58 57 57 58 57 56 56 56 56 56 56 56 55 56 56 56 56 57 57 56
58 58 57 57 57 56 57 57 57 57 59 59 59 59 58 58 59 58 58 58 58 58 57 57 57 58 57 56 56 56 57 56 56 56 56 56 55 56 56 57 56 56
57 57 56 56 57 57 57 57 58 58 59 58 58 58 58 58 59 59 58 57 57 58 57 57 57 56 56 56 56 56 56 57 57 56 56 56 56 57 56 56 56 55
56 56 56 56 56 56 57 57 58 57 58 59 57 57 58 57 58 58 57 56 56 57 57 57 57 57 56 56 56 56 57 57 57 56 56 56 56 56 57 57 56 56
56 56 56 57 57 57 57 58 58 58 57 58 58 57 57 56 57 56 57 56 56 57 57 57 57 56 57 57 57 56 56 56 56 56 56 56 56 56 56 57 56 56
56 57 57 57 57 57 57 57 56 56 56 56 57 57 56 55 55 54 56 56 56 56 56 56 56 56 56 55 56 56 56 56 55 55 55 56 56 56 57 56 56 56
54 53 53 54 54 53 53 52 52 52 52 54 55 53 53 53 53 54 54 55 54 55 55 55 55 55 54 55 55 55 55 55 55 55 55 55 55 56 56 56 56 57
51 51 51 51 51 51 51 50 50 51 51 51 52 52 53 53 53 53 53 53 53 52 53 54 53 53 54 54 54 54 54 54 55 55 55 55 55 55 55 56 56 57
51 51 51 51 50 50 50 50 50 50 50 50 50 51 51 52 52 52 52 52 52 52 52 52 52 52 55 54 54 56 55 54 54 54 54 54 55 55 55 55 56 56
50 50 50 50 49 49 50 50 50 50 50 50 50 50 50 51 53 51 51 51 51 51 51 51 52 53 52 47 47 49 54 54 54 54 54 54 54 54 54 55 55 56
50 50 50 49 50 50 50 50 50 50 50 50 49 49 49 51 50 50 50 50 50 50 50 51 52 53 47 47 47 46 50 53 53 54 54 54 54 53 54 54 55 55
50 50 50 49 49 50 50 51 49 50 49 48 48 49 50 49 49 50 49 50 50 50 50 51 52 50 46 47 46 46 46 49 52 52 52 53 53 53 53 53 54 54
50 50 50 50 50 50 49 49 48 47 48 48 49 49 49 48 48 48 49 49 49 49 50 50 50 50 46 46 47 46 45 47 52 51 51 52 53 53 53 53 53 54
49 48 48 48 48 48 47 47 47 47 47 48 49 49 48 48 48 48 49 49 49 49 49 49 50 48 46 45 45 45 45 46 50 51 51 51 51 52 52 53 53 53
48 47 48 48 48 47 47 47 47 47 47 48 49 48 48 48 48 48 48 48 48 49 48 48 49 46 45 45 45 44 44 49 50 50 50 51 51 51 51 52 52 53
47 47 47 47 47 47 46 46 46 46 46 47 47 47 46 46 47 47 48 48 48 48 48 48 48 47 44 44 44 44 45 48 49 50 50 50 50 51 51 52 52 53
47 47 47 48 47 46 46 46 46 46 46 48 47 46 45 46 47 47 47 48 47 47 48 47 48 48 45 44 44 43 46 49 50 49 50 50 51 52 52 52 53 55
47 47 46 46 46 47 46 46 47 47 48 48 47 46 46 47 48 47 47 47 47 47 50 49 48 49 46 44 44 44 46 49 49 50 49 49 50 51 52 52 53 53
46 47 47 46 46 46 46 46 47 47 46 46 46 46 46 46 46 46 46 46 47 48 48 49 48 49 50 45 44 44 44 48 50 49 48 49 50 50 50 51 52 52
MSLP
1013.23 1013.23 1013.43 1013.55 1013.55 1013.47 1013.51 1013.59 1013.75 1013.95 1014.11 1014.75 1014.95 1014.95 1014.99 1015.03 1015.27 1015.39 1015.63 1015.95 1016.11 1016.19 1016.31 1016.43 1016.55 1016.71 1016.79 1016.91 1017.03 1017.15 1017.27 1017.31 1017.39 1017.39 1017.43 1017.51 1017.55 1017.59 1017.63 1017.63 1017.71 1017.83
1013.27 1013.43 1013.35 1013.31 1013.27 1013.15 1013.15 1013.27 1013.63 1013.67 1013.87 1014.23 1014.31 1014.43 1014.71 1014.83 1014.99 1015.23 1015.55 1015.79 1015.95 1016.03 1016.15 1016.31 1016.47 1016.59 1016.75 1016.83 1016.95 1017.11 1017.19 1017.27 1017.23 1017.23 1017.35 1017.39 1017.39 1017.51 1017.55 1017.51 1017.51 1017.55
1013.03 1013.19 1013.23 1013.23 1013.11 1012.99 1013.11 1013.59 1013.79 1013.87 1014.03 1013.95 1014.03 1014.19 1014.39 1014.59 1014.79 1015.15 1015.35 1015.51 1015.71 1015.83 1016.03 1016.23 1016.43 1016.51 1016.63 1016.71 1016.83 1016.95 1016.99 1017.03 1017.07 1017.03 1017.15 1017.19 1017.23 1017.35 1017.31 1017.35 1017.39 1017.39
1012.91 1012.95 1013.03 1012.95 1012.87 1013.11 1013.47 1013.63 1013.67 1013.71 1013.87 1013.95 1013.83 1013.95 1014.15 1014.39 1014.67 1014.99 1015.23 1015.43 1015.59 1015.75 1015.95 1016.23 1016.31 1016.39 1016.47 1016.55 1016.67 1016.75 1016.75 1016.79 1016.79 1016.87 1016.95 1016.99 1017.03 1017.03 1017.03 1017.07 1017.07 1017.15
1012.27 1012.35 1012.47 1012.47 1012.43 1012.59 1012.79 1013.03 1013.19 1013.39 1013.51 1013.47 1013.63 1013.91 1014.03 1014.23 1014.63 1014.95 1015.19 1015.39 1015.55 1015.67 1015.91 1015.99 1016.15 1016.23 1016.31 1016.39 1016.47 1016.55 1016.59 1016.63 1016.67 1016.79 1016.83 1016.75 1016.71 1016.79 1016.79 1016.83 1016.87 1016.87
1011.15 1011.19 1011.35 1011.55 1011.75 1012.07 1012.39 1012.51 1012.67 1012.91 1013.11 1013.31 1013.27 1013.51 1013.75 1014.07 1014.39 1014.55 1014.83 1015.07 1015.35 1015.55 1015.67 1015.83 1015.95 1016.03 1016.11 1016.19 1016.31 1016.35 1016.35 1016.39 1016.35 1016.47 1016.51 1016.51 1016.47 1016.59 1016.63 1016.63 1016.67 1016.71
1010.59 1010.71 1010.87 1011.19 1011.63 1011.87 1012.03 1012.19 1012.47 1012.75 1012.91 1012.91 1013.15 1013.39 1013.55 1013.83 1014.07 1014.27 1014.63 1014.95 1015.19 1015.43 1015.55 1015.67 1015.79 1015.87 1015.99 1016.03 1016.11 1016.11 1016.15 1016.15 1016.15 1016.27 1016.31 1016.31 1016.35 1016.31 1016.39 1016.43 1016.43 1016.43
1011.27 1011.51 1011.67 1011.75 1011.83 1012.11 1012.27 1012.47 1012.63 1012.75 1012.83 1013.03 1013.11 1013.15 1013.39 1013.63 1013.95 1014.27 1014.51 1014.75 1014.95 1015.11 1015.27 1015.47 1015.59 1015.59 1015.71 1015.87 1015.87 1015.87 1015.87 1016.03 1016.03 1016.03 1016.11 1016.11 1016.19 1016.15 1016.15 1016.15 1016.15 1016.11
1011.19 1011.59 1011.87 1011.99 1012.03 1012.07 1012.15 1012.27 1012.47 1012.67 1012.87 1012.99 1013.07 1013.23 1013.47 1013.63 1013.83 1014.11 1014.27 1014.31 1014.51 1014.75 1014.99 1015.19 1015.27 1015.39 1015.47 1015.55 1015.55 1015.63 1015.63 1015.71 1015.75 1015.75 1015.79 1015.79 1015.91 1015.87 1015.87 1015.87 1015.95 1015.99
1011.23 1011.51 1011.87 1012.11 1012.15 1012.19 1012.15 1012.23 1012.35 1012.51 1012.63 1012.75 1012.83 1013.07 1013.31 1013.51 1013.55 1013.67 1013.95 1014.15 1014.31 1014.51 1014.71 1014.87 1015.03 1015.15 1015.19 1015.27 1015.27 1015.31 1015.39 1015.35 1015.35 1015.43 1015.47 1015.55 1015.55 1015.59 1015.63 1015.67 1015.63 1015.63
1012.63 1012.67 1012.51 1012.19 1012.07 1012.11 1012.19 1012.19 1012.15 1012.23 1012.39 1012.47 1012.63 1012.79 1012.95 1013.23 1013.59 1013.71 1013.87 1014.07 1014.11 1014.23 1014.39 1014.55 1014.63 1014.71 1014.83 1014.95 1015.03 1015.11 1015.03 1014.99 1015.03 1015.11 1015.15 1015.19 1015.23 1015.27 1015.23 1015.23 1015.27 1015.27
1012.27 1012.47 1012.55 1012.47 1012.27 1012.19 1012.15 1012.11 1012.03 1012.11 1012.27 1012.43 1012.51 1012.55 1012.75 1013.07 1013.35 1013.67 1013.63 1013.71 1013.87 1013.91 1014.03 1014.15 1014.27 1014.43 1014.51 1014.55 1014.63 1014.75 1014.83 1014.83 1014.83 1014.83 1014.79 1014.83 1014.87 1014.87 1014.87 1014.83 1014.87 1014.87
1011.79 1011.91 1012.23 1012.63 1012.75 1012.67 1012.59 1012.55 1012.51 1012.59 1012.75 1012.83 1012.83 1012.75 1012.95 1013.35 1013.63 1013.63 1013.79 1013.87 1013.87 1013.87 1013.99 1014.11 1014.19 1014.31 1014.43 1014.51 1014.55 1014.59 1014.59 1014.59 1014.59 1014.59 1014.55 1014.51 1014.47 1014.43 1014.39 1014.39 1014.43 1014.51
1012.35 1012.39 1012.59 1012.83 1012.95 1013.03 1013.11 1013.19 1013.31 1013.39 1013.51 1013.47 1013.35 1013.47 1013.71 1013.83 1013.87 1014.03 1014.19 1014.15 1014.07 1014.11 1014.27 1014.43 1014.43 1014.39 1014.39 1014.39 1014.39 1014.39 1014.39 1014.35 1014.35 1014.27 1014.23 1014.19 1014.11 1014.07 1014.03 1014.03 1013.99 1013.99
1012.71 1012.95 1013.23 1013.39 1013.63 1013.67 1013.71 1013.83 1013.87 1013.87 1013.75 1013.71 1013.79 1013.95 1014.03 1014.11 1014.19 1014.15 1014.15 1014.19 1014.11 1014.15 1014.23 1014.35 1014.39 1014.31 1014.23 1014.19 1014.19 1014.19 1014.19 1014.11 1014.03 1013.99 1013.95 1013.87 1013.83 1013.79 1013.75 1013.71 1013.63 1013.59
1013.23 1013.35 1013.43 1013.55 1013.59 1013.79 1013.87 1013.83 1013.83 1013.91 1014.07 1014.11 1014.27 1014.31 1014.23 1014.19 1014.03 1014.11 1014.19 1014.11 1014.11 1014.07 1014.03 1014.19 1014.19 1014.15 1014.03 1013.95 1013.95 1013.91 1013.87 1013.87 1013.79 1013.75 1013.71 1013.63 1013.59 1013.47 1013.39 1013.39 1013.31 1013.27
1013.51 1013.47 1013.47 1013.59 1013.67 1013.67 1013.79 1013.87 1013.99 1014.19 1014.43 1014.51 1014.43 1014.43 1014.43 1014.43 1014.31 1014.07 1013.91 1013.95 1014.03 1013.99 1013.99 1014.07 1014.07 1014.03 1013.87 1013.83 1013.79 1013.79 1013.75 1013.59 1013.51 1013.39 1013.35 1013.35 1013.27 1013.23 1013.07 1012.95 1012.91 1012.87
1013.75 1013.59 1013.43 1013.51 1013.55 1013.71 1013.87 1014.11 1014.23 1014.31 1014.31 1014.35 1014.47 1014.59 1014.63 1014.55 1014.31 1013.95 1013.83 1013.83 1013.87 1013.95 1013.99 1013.95 1013.87 1013.75 1013.67 1013.59 1013.55 1013.43 1013.43 1013.39 1013.23 1013.11 1012.99 1012.91 1012.83 1012.79 1012.67 1012.55 1012.43 1012.39
1013.35 1013.43 1013.63 1013.79 1013.83 1013.79 1013.87 1013.95 1014.15 1014.19 1014.31 1014.43 1014.39 1014.39 1014.47 1014.43 1014.15 1013.95 1013.83 1013.79 1013.79 1013.79 1013.75 1013.67 1013.55 1013.47 1013.43 1013.31 1013.27 1013.19 1013.07 1013.07 1012.95 1012.79 1012.71 1012.51 1012.39 1012.31 1012.23 1012.15 1012.07 1011.99
1013.11 1013.23 1013.27 1013.43 1013.63 1013.75 1013.95 1014.15 1014.31 1014.23 1014.27 1014.27 1014.07 1014.11 1014.15 1013.99 1013.87 1013.75 1013.71 1013.71 1013.71 1013.63 1013.43 1013.31 1013.19 1013.15 1013.11 1013.07 1013.03 1012.91 1012.75 1012.71 1012.51 1012.39 1012.31 1012.15 1012.03 1011.91 1011.79 1011.71 1011.63 1011.63
1013.43 1013.55 1013.67 1013.87 1014.03 1014.11 1014.15 1014.11 1014.03 1013.87 1013.83 1013.83 1013.91 1013.91 1013.87 1013.71 1013.55 1013.51 1013.47 1013.43 1013.39 1013.23 1013.07 1012.87 1012.83 1012.79 1012.83 1012.79 1012.71 1012.63 1012.51 1012.47 1012.31 1012.19 1012.03 1011.91 1011.87 1011.79 1011.67 1011.47 1011.35 1011.31
1013.39 1013.43 1013.47 1013.55 1013.63 1013.75 1013.83 1013.79 1013.75 1013.79 1013.79 1013.83 1013.79 1013.67 1013.55 1013.43 1013.31 1013.31 1013.19 1013.07 1012.95 1012.91 1012.79 1012.59 1012.43 1012.51 1012.47 1012.43 1012.39 1012.31 1012.23 1012.15 1011.99 1011.87 1011.71 1011.59 1011.51 1011.51 1011.43 1011.27 1011.15 1011.11
1013.15 1013.19 1013.19 1013.19 1013.27 1013.43 1013.43 1013.39 1013.43 1013.47 1013.59 1013.63 1013.59 1013.47 1013.35 1013.23 1013.07 1012.87 1012.75 1012.71 1012.63 1012.59 1012.55 1012.31 1012.19 1012.15 1012.15 1012.07 1012.03 1011.95 1011.95 1011.87 1011.75 1011.59 1011.39 1011.19 1011.03 1010.95 1010.87 1010.75 1010.71 1010.71
1012.87 1012.91 1012.91 1012.87 1012.99 1013.03 1013.07 1013.11 1013.15 1013.19 1013.23 1013.19 1013.11 1012.95 1012.91 1012.79 1012.63 1012.51 1012.43 1012.43 1012.39 1012.35 1012.27 1012.11 1011.87 1011.79 1011.75 1011.63 1011.59 1011.55 1011.51 1011.39 1011.19 1011.03 1010.79 1010.63 1010.47 1010.39 1010.31 1010.27 1010.19 1010.15
1012.67 1012.67 1012.71 1012.71 1012.75 1012.67 1012.67 1012.67 1012.67 1012.63 1012.59 1012.71 1012.75 1012.71 1012.59 1012.51 1012.47 1012.35 1012.19 1012.15 1012.11 1011.99 1011.79 1011.63 1011.43 1011.23 1011.15 1011.07 1010.95 1010.95 1010.95 1010.83 1010.71 1010.51 1010.39 1010.23 1010.15 1009.99 1009.91 1009.91 1009.83 1009.79
1012.55 1012.55 1012.59 1012.59 1012.55 1012.51 1012.55 1012.59 1012.59 1012.63 1012.63 1012.63 1012.59 1012.55 1012.43 1012.31 1012.31 1012.19 1012.03 1011.87 1011.79 1011.63 1011.43 1011.19 1010.95 1010.67 1010.47 1010.39 1010.39 1010.31 1010.27 1010.27 1010.15 1010.11 1009.99 1009.87 1009.79 1009.71 1009.71 1009.59 1009.51 1009.43
Wind_Speed
4 6 8 8 8 8 9 9 9 11 11 10 9 7 7 6 5 5 5 4 4 4 4 5 4 4 4 4 4 3 4 5 5 5 5 5 5 6 6 7 6 6
7 6 6 7 8 7 8 7 7 8 10 9 8 7 6 5 5 6 6 6 5 6 5 5 5 5 5 4 4 4 5 4 6 4 5 6 6 5 6 7 7 6
7 8 8 9 9 9 6 3 4 5 6 7 7 7 7 6 6 6 6 6 6 6 5 5 5 5 5 5 5 5 5 5 6 6 5 6 6 6 6 6 5 7
7 8 9 10 9 8 7 8 8 7 6 6 7 7 7 6 6 6 6 6 6 5 5 5 6 5 5 6 5 5 6 6 6 5 5 5 5 6 6 5 6 6
11 11 10 10 9 9 9 10 10 9 8 8 6 6 6 5 5 5 6 6 5 6 5 6 5 6 6 6 6 5 5 5 5 5 6 6 6 5 6 5 6 7
13 13 13 13 11 11 10 11 10 9 9 7 8 7 6 6 7 7 7 7 6 6 6 5 6 6 6 6 5 5 5 5 6 5 5 6 6 5 4 5 6 7
14 12 11 9 8 8 9 9 8 8 8 7 5 7 7 7 7 7 6 6 6 6 6 6 6 6 5 5 5 6 6 6 5 5 6 6 6 6 6 6 6 7
3 1 3 4 6 5 5 5 5 6 6 4 7 7 6 7 6 5 5 6 6 7 7 6 6 6 6 5 6 6 6 5 5 6 6 7 6 7 7 6 6 7
5 4 3 4 5 5 6 6 6 6 4 6 5 4 4 5 6 5 6 7 7 7 7 6 6 7 6 6 6 7 7 6 6 7 7 7 7 8 8 7 7 6
5 5 5 4 5 5 6 5 4 4 4 5 5 4 5 5 6 7 7 7 7 6 6 7 7 7 6 6 7 7 7 8 8 7 7 8 8 8 8 7 8 7
5 2 3 5 6 6 7 7 7 6 5 6 6 6 5 4 4 5 6 6 6 7 7 7 7 7 7 7 7 7 8 8 8 8 8 8 9 9 8 8 8 8
4 4 6 7 7 7 7 7 6 6 6 5 6 6 5 5 6 6 6 7 7 8 7 7 7 7 7 8 8 8 7 7 7 8 8 9 9 9 9 9 8 9
5 6 5 5 5 4 3 3 3 3 3 3 1 2 3 5 5 5 4 5 6 5 5 6 6 6 6 7 7 7 8 8 8 8 9 8 9 10 9 9 9 9
3 4 4 4 4 5 6 6 7 6 6 5 5 5 2 1 2 3 3 2 2 3 3 4 5 5 6 6 7 7 7 8 8 8 9 9 10 10 9 10 10 10
7 7 8 8 8 8 7 7 7 6 6 6 6 5 3 3 1 1 3 4 4 3 4 5 5 6 5 6 6 8 7 9 9 9 10 10 10 10 10 9 8 8
8 8 7 7 7 7 6 6 7 7 7 6 5 4 3 2 3 2 2 3 4 4 4 4 4 4 6 10 10 7 8 7 8 8 8 9 9 10 10 9 9 9
6 6 6 6 5 6 6 6 6 4 3 2 2 3 3 3 1 3 3 3 4 4 5 4 4 4 8 10 11 13 10 8 8 8 9 9 9 10 11 9 9 9
5 5 6 5 5 5 4 3 2 1 0 2 3 4 4 4 5 5 4 4 4 5 5 6 5 7 11 11 12 13 11 9 7 8 8 9 9 9 9 9 10 9
3 3 3 3 2 3 2 2 1 2 3 2 4 5 4 6 6 5 5 5 5 7 7 6 6 8 12 13 13 14 14 12 7 7 8 10 10 9 9 9 8 7
4 3 3 4 3 3 3 3 3 4 5 5 5 5 5 6 5 6 6 6 6 7 8 8 8 8 12 13 14 16 16 14 11 10 10 10 10 11 10 9 8 8
4 4 4 3 3 4 4 4 5 4 5 5 5 6 6 7 7 7 6 7 7 8 7 8 6 10 13 15 15 16 17 14 10 10 8 8 8 8 8 8 8 8
5 5 5 5 6 5 5 5 5 6 6 6 6 6 6 6 6 6 7 8 8 8 8 9 8 11 13 15 16 15 16 9 10 9 9 8 8 7 7 7 8 8
5 5 5 5 5 5 5 5 5 6 6 5 7 6 7 7 7 7 6 7 8 7 9 9 9 10 14 15 16 17 12 7 8 8 9 10 9 8 8 8 8 8
6 6 6 5 4 5 5 5 5 5 6 5 7 7 7 7 7 6 6 6 7 9 9 10 10 11 15 16 16 17 13 9 8 8 9 9 8 8 8 8 10 17
5 5 5 4 4 5 5 6 6 6 6 5 6 6 8 6 6 6 7 6 7 9 14 14 11 11 15 16 17 17 13 7 7 8 9 8 8 9 8 7 8 11
4 4 4 4 6 6 5 6 5 5 6 6 6 5 6 6 6 7 9 7 7 9 9 10 11 10 10 14 14 15 15 9 7 8 8 9 9 10 9 8 9 9
Wind_Direction
173 171 175 180 190 184 181 184 173 176 179 183 191 189 182 191 168 161 185 190 199 196 197 205 208 215 223 221 212 213 221 228 244 240 237 234 240 234 245 244 237 225
174 187 187 187 192 198 189 185 179 183 184 185 189 174 182 169 180 169 185 195 198 206 203 203 207 212 218 220 212 206 231 230 243 233 233 240 246 245 250 251 250 250
187 187 193 194 199 205 184 153 191 202 191 190 172 172 177 183 173 188 192 192 194 206 205 206 207 212 210 215 206 209 223 226 235 238 225 240 242 235 242 247 247 246
197 199 201 203 202 186 166 188 206 196 189 180 187 181 178 179 177 186 195 193 194 207 208 200 211 210 209 214 205 214 220 224 232 228 231 236 232 229 239 236 239 245
196 196 202 207 203 188 183 191 199 189 188 194 179 178 176 177 171 186 191 199 198 209 202 210 208 214 209 212 204 216 219 226 228 213 219 236 239 224 233 226 235 246
200 194 194 195 195 186 189 192 193 186 187 186 190 175 182 174 181 192 195 195 199 205 210 212 214 220 211 212 201 213 219 219 226 209 215 228 244 231 229 227 234 242
205 199 195 189 186 189 190 192 186 186 189 192 165 184 179 183 192 197 194 196 194 199 207 211 211 218 209 205 202 217 223 226 235 222 225 234 231 244 232 227 230 236
266 251 198 184 178 177 186 186 185 191 195 177 185 201 181 187 190 193 188 193 196 203 204 202 204 211 212 202 214 224 236 220 224 224 228 238 231 243 243 239 233 236
170 178 179 183 180 180 186 189 196 202 196 192 203 199 161 175 191 189 200 195 202 200 193 200 209 217 220 211 220 223 228 230 223 219 226 234 234 238 238 240 242 238
171 167 168 181 191 199 200 203 198 196 177 188 194 169 181 207 202 201 200 200 193 194 199 210 215 221 221 214 219 217 221 225 227 225 225 232 235 238 238 232 232 239
6 333 246 212 208 200 211 205 206 203 196 194 195 202 199 191 220 202 191 186 192 201 212 214 221 219 220 221 221 222 224 227 229 229 229 230 232 230 231 228 229 230
212 235 246 247 236 224 220 218 216 207 213 216 198 200 193 203 204 199 189 198 206 213 216 224 223 222 222 224 225 226 229 232 232 234 235 231 232 229 227 228 228 229
213 225 227 249 275 289 311 308 305 313 305 291 300 166 193 195 206 204 237 225 232 236 237 237 238 231 232 235 238 239 239 238 238 239 239 237 235 233 232 229 228 228
6 18 11 12 16 20 29 30 34 39 35 30 45 50 44 354 328 281 280 283 293 295 288 283 263 249 245 243 242 243 244 245 242 242 244 242 242 240 238 235 230 228
43 45 47 52 51 52 51 49 51 49 52 49 46 48 39 48 116 42 349 348 318 277 256 251 251 252 249 249 252 249 244 249 247 246 244 247 246 244 242 239 237 234
60 60 61 63 62 56 50 55 48 37 35 33 30 24 29 3 29 35 237 240 265 267 265 259 260 260 253 251 251 253 252 249 250 247 246 245 247 248 245 241 239 237
60 67 70 62 67 65 55 50 50 54 53 18 15 360 332 303 249 240 248 234 243 256 268 263 256 254 257 258 260 260 260 260 252 253 247 246 244 244 246 240 238 233
62 67 71 70 76 77 90 107 104 92 64 313 293 272 255 252 258 253 256 253 249 246 247 246 253 257 262 266 266 266 262 258 254 253 252 248 243 240 241 238 237 235
123 112 102 100 137 151 161 140 146 233 260 260 257 255 257 247 243 246 251 249 252 253 250 244 248 243 249 258 262 262 262 260 250 248 246 249 247 242 238 235 231 231
131 137 179 184 185 185 174 188 222 231 235 231 244 252 249 254 258 258 255 247 241 242 246 247 245 246 249 253 256 258 260 260 262 258 252 248 244 242 240 237 232 233
164 181 197 196 208 221 223 216 221 237 249 253 244 237 239 241 243 248 243 237 240 243 249 250 248 244 245 247 250 255 259 263 266 267 264 260 258 254 252 250 246 240
180 193 200 206 210 210 212 224 227 229 234 240 242 240 239 244 247 240 247 249 250 253 256 260 255 244 248 251 252 255 257 256 262 263 264 262 255 248 244 242 243 240
198 204 212 214 211 212 222 228 232 237 238 228 243 244 248 247 246 245 250 256 257 253 258 262 261 248 247 249 250 251 251 251 253 254 257 258 256 246 240 237 235 233
206 206 215 221 218 230 238 240 236 237 241 236 254 265 264 260 262 263 258 254 254 256 250 257 260 251 247 247 246 246 241 243 246 249 255 255 257 249 248 244 244 243
220 217 227 239 254 261 263 272 274 276 278 274 266 266 269 270 266 265 261 250 246 251 255 259 260 251 241 243 244 244 243 237 243 254 256 253 255 255 251 248 250 247
219 221 230 237 253 264 270 270 277 287 281 278 275 270 273 273 269 268 268 261 257 257 259 258 258 257 248 241 242 246 244 240 239 249 246 251 254 260 257 248 246 248